[[{"header":{"parameterUnit":"m.s-1","parameterCategory":1,"la1":30.2991,"la2":30.254,"lo1":-89.0895,"lo2":-89.0444,"dy":0.0017,"dx":0.0017,"nx":28,"ny":28,"refTime":"2025-03-14T03:00:00:Z","depth":0,"parameterNumber":2,"parameterNumberName":"U-component_of_WINDS"},"data":[0,0,0,0,0,0,0,0,0,0,0,0,0,0,0,0,0,0,0,0,0,0,0,0,0,0,0,0,0,0,0,0,0,0,0,0,0,0,0,0,0,0,0,0,0,0,0,0,0,0,0,0,0,0,0,0,0,0,-3.4711,-3.4711,0,-3.4719,-3.4719,-3.4719,-3.4688,-3.4687,-3.4686,-3.4685,-3.4693,-3.4694,-3.4695,0,0,0,0,0,0,0,0,0,0,0,0,0,-3.4671,-3.4672,-3.4711,-3.4711,-3.4711,-3.4719,-3.4719,-3.4719,-3.4688,-3.4687,-3.4686,-3.4685,-3.4693,-3.4694,-3.4695,0,0,0,0,0,0,0,0,0,0,0,0,0,-3.4684,-3.4672,-3.4711,-3.4697,-3.4696,-3.4719,-3.4719,-3.4719,-3.4689,-3.4687,-3.4686,-3.4684,-3.4693,-3.4694,-3.4696,-3.4733,0,0,-3.4701,-3.4701,0,0,0,0,0,0,0,0,-3.4684,-3.4686,-3.4699,-3.4698,-3.4697,-3.4701,-3.4708,-3.4724,-3.4689,-3.4691,-3.4685,-3.4684,-3.4697,-3.4698,-3.4703,-3.4733,-3.4734,-3.4701,-3.4702,-3.4702,-3.4703,0,0,0,0,0,0,0,-3.4683,-3.4685,-3.4714,-3.4699,-3.4698,-3.469,-3.4691,-3.4711,-3.4702,-3.4691,-3.4689,-3.469,-3.4696,-3.4701,-3.4703,-3.4734,-3.4701,-3.4702,-3.4703,-3.4704,-3.4796,-3.4797,0,0,0,0,0,0,-3.4684,-3.4685,-3.4714,-3.4714,-3.4687,-3.4692,-3.4693,-3.4701,-3.4701,-3.47,-3.4691,-3.4689,-3.4699,-3.4701,-3.4703,-3.4746,-3.4702,-3.4704,-3.4705,-3.4794,-3.4796,-3.4798,0,0,0,0,0,0,-3.4683,-3.4687,-3.4714,-3.4699,-3.4702,-3.4694,-3.4704,-3.4702,-3.4707,-3.4702,-3.47,-3.4698,-3.4698,-3.47,-3.4726,-3.4746,-3.4705,-3.4706,-3.4793,-3.4795,-3.4797,-3.4833,0,0,0,0,0,0,-3.4682,-3.4686,-3.47,-3.47,-3.4703,-3.4736,-3.4705,-3.4703,-3.471,-3.4706,-3.4707,-3.4706,-3.4697,-3.4724,-3.4727,-3.4747,-3.4707,-3.4791,-3.4794,-3.4796,-3.483,-3.4836,-3.4842,0,0,0,0,0,-3.4681,-3.471,-3.4701,-3.4705,-3.472,-3.4737,-3.4739,-3.4728,-3.4711,-3.4725,-3.4722,-3.4706,-3.4744,-3.4726,-3.473,-3.4751,-3.4789,-3.4793,-3.4796,-3.4827,-3.4835,-3.4841,0,0,0,0,0,0,-3.4712,-3.4709,-3.4699,-3.4729,-3.4734,-3.4732,-3.4749,-3.4737,-3.4746,-3.4742,-3.4728,-3.4729,-3.4757,-3.4757,-3.4738,-3.4788,-3.4764,-3.4768,-3.4786,-3.4793,-3.4799,-3.4797,-3.4709,0,0,0,0,0,-3.4723,-3.4737,-3.4734,-3.4761,-3.4764,-3.4756,-3.4764,-3.4755,-3.4759,-3.4761,-3.4759,-3.4764,-3.4777,-3.4785,-3.4797,-3.4831,-3.483,-3.4847,-3.4853,-3.4858,-3.4861,-3.4879,-3.4886,-3.4809,-3.4809,-3.4809,0,0,-3.4745,-3.4745,-3.4755,-3.4768,-3.477,-3.4785,-3.4758,-3.4775,-3.4787,-3.4763,-3.4786,-3.4786,-3.4791,-3.482,-3.4833,-3.4821,-3.4883,-3.4862,-3.4866,-3.4867,-3.4883,-3.4891,-3.4897,-3.4811,-3.4811,-3.481,0,0,-3.4792,-3.4794,-3.4816,-3.482,-3.4824,-3.4819,-3.4825,-3.4825,-3.4824,-3.4848,-3.4831,-3.4844,-3.4867,-3.487,-3.4875,-3.4926,-3.4912,-3.4931,-3.496,-3.4978,-3.4984,-3.4989,-3.5007,-3.5013,-3.4935,-3.4935,-3.4935,0,-3.4818,-3.484,-3.4829,-3.4848,-3.4854,-3.4835,-3.4858,-3.4862,-3.4869,-3.4874,-3.4861,-3.4889,-3.4891,-3.4921,-3.4934,-3.4939,-3.4944,-3.4929,-3.4984,-3.4989,-3.4994,-3.501,-3.5017,-3.4937,-3.4937,-3.4936,-3.4936,0,-3.4872,-3.4888,-3.4906,-3.4914,-3.4923,-3.4944,-3.4936,-3.4946,-3.4938,-3.4934,-3.4959,-3.4961,-3.4972,-3.4979,-3.4971,-3.5009,-3.5001,-3.4986,-3.4962,-3.5004,-3.5019,-3.5025,-3.494,-3.4939,-3.4938,-3.4938,0,0,-3.4937,-3.4941,-3.4947,-3.4951,-3.4955,-3.4967,-3.4988,-3.5,-3.5008,-3.5015,-3.5032,-3.5052,-3.5039,-3.5044,-3.5037,-3.5052,-3.5092,-3.5036,-3.5036,-3.5045,-3.5134,-3.5143,-3.5151,-3.5084,-3.5085,-3.5086,-3.5133,0,-3.4983,-3.5017,-3.5009,-3.5043,-3.5057,-3.504,-3.5058,-3.5063,-3.5061,-3.5073,-3.5072,-3.5086,-3.5068,-3.5071,-3.5086,-3.5084,-3.5109,-3.5081,-3.5098,-3.5099,-3.5096,-3.5159,-3.5169,-3.5213,-3.5139,-3.514,-3.514,0,-3.5039,-3.5049,-3.5084,-3.5087,-3.5093,-3.5109,-3.5119,-3.5132,-3.5137,-3.5135,-3.5142,-3.5132,-3.5152,-3.513,-3.5158,-3.5138,-3.5146,-3.5146,-3.5148,-3.5147,-3.5121,-3.5159,-3.5227,-3.5233,-3.515,-3.5149,-3.5148,0,-3.5082,-3.5104,-3.5128,-3.5132,-3.5136,-3.5147,-3.515,-3.5154,-3.5162,-3.5171,-3.5176,-3.5188,-3.5195,-3.5204,-3.5198,-3.5182,-3.5227,-3.5203,-3.5225,-3.5225,-3.5233,-3.5233,-3.5302,-3.5241,-3.5241,-3.5241,-3.5241,0,-3.5132,-3.5155,-3.5147,-3.5161,-3.5186,-3.5177,-3.5202,-3.5202,-3.5207,-3.5221,-3.5208,-3.5222,-3.5213,-3.5227,-3.5222,-3.5246,-3.525,-3.5248,-3.5246,-3.5248,-3.5248,-3.5251,-3.5247,-3.5243,-3.5242,-3.5242,-3.5242,0,-3.5183,-3.5179,-3.5204,-3.5206,-3.5207,-3.5225,-3.5227,-3.5241,-3.5239,-3.5258,-3.5262,-3.5259,-3.5274,-3.5269,-3.5286,-3.5283,-3.5313,-3.5308,-3.5311,-3.5309,-3.533,-3.5328,-3.5403,-3.5412,-3.5346,-3.5347,-3.5348,0,-3.5214,-3.5231,-3.5236,-3.5245,-3.5248,-3.5263,-3.5271,-3.5263,-3.5272,-3.5281,-3.5294,-3.5308,-3.5319,-3.5345,-3.5344,-3.5357,-3.5351,-3.5377,-3.5353,-3.5355,-3.535,-3.5349,-3.535,-3.5381,-3.5382,-3.5382,-3.5383,0,-3.5271,-3.5268,-3.528,-3.5292,-3.5302,-3.5311,-3.5319,-3.5327,-3.5321,-3.5332,-3.5347,-3.5356,-3.5374,-3.5388,-3.54,-3.5403,-3.5392,-3.5391,-3.5396,-3.5397,-3.5398,-3.5397,-3.5322,-3.5388,-3.5388,-3.5387,-3.5387,-3.5387,-3.5312,-3.5326,-3.5331,-3.5346,-3.5351,-3.5359,-3.5372,-3.5372,-3.5385,-3.5399,-3.5394,-3.5412,-3.5419,-3.5434,-3.5438,-3.5452,-3.5443,-3.5451,-3.5453,-3.5454,-3.5456,-3.5397,-3.5455,-3.5455,-3.5455,-3.5454,-3.5454,0,-3.5366,-3.5369,-3.5383,-3.5394,-3.5406,-3.5395,-3.5404,-3.5414,-3.543,-3.5437,-3.5449,-3.5467,-3.5482,-3.5483,-3.5496,-3.5508,-3.5503,-3.5511,-3.551,-3.551,-3.5465,-3.5458,-3.5515,-3.5515,-3.5515,-3.5515,-3.5515,-3.5515,-3.5396,-3.5419,-3.5417,-3.5444,-3.5447,-3.5464,-3.547,-3.5477,-3.5483,-3.5504,-3.5516,-3.5517,-3.5522,-3.5536,-3.5549,-3.5549,-3.5554,-3.5564,-3.5562,-3.552,-3.5513,-3.5508,-3.5501,-3.5566,-3.5566,-3.5606,-3.5607,-3.5607]},{"header":{"parameterUnit":"m.s-1","parameterCategory":1,"la1":30.2991,"la2":30.254,"lo1":-89.0895,"lo2":-89.0444,"dy":0.0017,"dx":0.0017,"nx":28,"ny":28,"refTime":"2025-03-14T03:00:00:Z","depth":0,"parameterNumber":3,"parameterNumberName":"V-component_of_WINDS"},"data":[0,0,0,0,0,0,0,0,0,0,0,0,0,0,0,0,0,0,0,0,0,0,0,0,0,0,0,0,0,0,0,0,0,0,0,0,0,0,0,0,0,0,0,0,0,0,0,0,0,0,0,0,0,0,0,0,0,0,5.0337,5.0338,0,5.0358,5.0358,5.0359,5.0351,5.0351,5.035,5.035,5.0369,5.037,5.0371,0,0,0,0,0,0,0,0,0,0,0,0,0,5.0291,5.0292,5.0337,5.0338,5.0338,5.0358,5.0358,5.0359,5.0351,5.0351,5.035,5.0349,5.0369,5.037,5.0371,0,0,0,0,0,0,0,0,0,0,0,0,0,5.0311,5.0292,5.0337,5.0337,5.0337,5.0358,5.0358,5.0359,5.0351,5.0351,5.035,5.0349,5.0368,5.037,5.0371,5.0394,0,0,5.0375,5.0376,0,0,0,0,0,0,0,0,5.031,5.0313,5.0337,5.0337,5.0337,5.0351,5.0349,5.037,5.0351,5.0346,5.035,5.0349,5.0363,5.0365,5.0371,5.0394,5.0395,5.0375,5.0376,5.0377,5.0377,0,0,0,0,0,0,0,5.0309,5.0312,5.0346,5.0337,5.0337,5.0335,5.0337,5.0353,5.0358,5.0346,5.0346,5.0348,5.0363,5.0369,5.0371,5.0396,5.0375,5.0377,5.0377,5.0378,5.0442,5.0442,0,0,0,0,0,0,5.0307,5.0311,5.0345,5.0346,5.0322,5.0337,5.0339,5.0347,5.0358,5.0359,5.0349,5.0348,5.0367,5.0369,5.0372,5.0401,5.0377,5.0378,5.0379,5.0441,5.0442,5.0443,0,0,0,0,0,0,5.0306,5.031,5.0344,5.0329,5.0333,5.0338,5.0348,5.0348,5.0354,5.036,5.0361,5.0354,5.0367,5.037,5.0389,5.0401,5.0379,5.038,5.044,5.0441,5.0442,5.0458,0,0,0,0,0,0,5.0305,5.031,5.0319,5.0329,5.0334,5.0361,5.0348,5.0349,5.0357,5.0356,5.0365,5.0366,5.0366,5.0387,5.039,5.0403,5.0381,5.0439,5.044,5.0442,5.0456,5.0459,5.0462,0,0,0,0,0,5.0303,5.0321,5.0319,5.0323,5.0344,5.0362,5.0365,5.0365,5.0358,5.0367,5.0371,5.0366,5.0399,5.0389,5.0393,5.0406,5.0438,5.044,5.0442,5.0455,5.0459,5.0462,0,0,0,0,0,0,5.0311,5.0322,5.032,5.0342,5.0351,5.0361,5.0372,5.0369,5.038,5.0378,5.0378,5.0381,5.0401,5.0405,5.0393,5.0429,5.0417,5.042,5.0426,5.043,5.0433,5.0432,5.0382,0,0,0,0,0,5.0315,5.0329,5.0338,5.0356,5.0361,5.0366,5.0373,5.0373,5.0383,5.0386,5.0392,5.0401,5.0414,5.0422,5.0433,5.0457,5.0459,5.0468,5.0471,5.0473,5.0476,5.049,5.0495,5.0449,5.0449,5.0449,0,0,5.0324,5.0332,5.034,5.0358,5.0365,5.038,5.0369,5.0384,5.0395,5.0388,5.0408,5.0412,5.0422,5.0444,5.0454,5.0448,5.0489,5.0475,5.0477,5.0479,5.0493,5.0497,5.0501,5.045,5.045,5.045,0,0,5.0348,5.0355,5.0372,5.038,5.0392,5.0395,5.0399,5.041,5.0413,5.0432,5.0429,5.0441,5.0463,5.0471,5.0477,5.0507,5.0503,5.0511,5.0527,5.0541,5.0545,5.0548,5.056,5.0564,5.0513,5.0513,5.0513,0,5.0357,5.0379,5.038,5.0397,5.0406,5.0402,5.042,5.0427,5.0442,5.0448,5.0441,5.047,5.0476,5.0501,5.0509,5.0513,5.0519,5.051,5.0544,5.0547,5.055,5.0562,5.0566,5.0514,5.0514,5.0514,5.0514,0,5.0391,5.0406,5.0418,5.0435,5.0445,5.0461,5.0466,5.0476,5.0475,5.048,5.0501,5.0508,5.0523,5.0529,5.0527,5.0554,5.055,5.0544,5.0532,5.0556,5.0567,5.0571,5.0516,5.0515,5.0515,5.0515,0,0,5.0418,5.0437,5.0442,5.045,5.0464,5.0476,5.0493,5.0509,5.0518,5.0528,5.0544,5.0563,5.0558,5.0566,5.0566,5.0579,5.0604,5.0571,5.0571,5.0578,5.0636,5.0641,5.0646,5.0601,5.0602,5.0603,5.0635,0,5.0444,5.0476,5.0479,5.0507,5.0523,5.052,5.0536,5.0546,5.0551,5.0565,5.0569,5.0584,5.0575,5.0581,5.0593,5.0598,5.0616,5.0596,5.0616,5.0617,5.0615,5.0652,5.0657,5.0688,5.0639,5.064,5.0641,0,5.0478,5.0493,5.0523,5.0537,5.0544,5.0557,5.0573,5.0586,5.0598,5.0601,5.0611,5.061,5.0629,5.0616,5.0642,5.0629,5.0637,5.0641,5.0642,5.0645,5.0631,5.0657,5.0697,5.0702,5.0647,5.0647,5.0646,0,5.0498,5.0524,5.0546,5.0553,5.057,5.058,5.0587,5.0599,5.0609,5.0622,5.0629,5.0644,5.0652,5.0664,5.0667,5.0658,5.0694,5.0681,5.0697,5.0698,5.0706,5.0705,5.0749,5.0709,5.0709,5.0709,5.0709,0,5.0527,5.0546,5.0556,5.0569,5.0591,5.0595,5.0616,5.0623,5.0634,5.0649,5.0647,5.0661,5.0665,5.068,5.0682,5.0705,5.0708,5.0711,5.0712,5.0712,5.0712,5.0718,5.0716,5.071,5.071,5.071,5.071,0,5.0553,5.0559,5.0584,5.0599,5.0603,5.0618,5.0631,5.0644,5.065,5.0669,5.0674,5.0682,5.07,5.0705,5.0725,5.0727,5.0754,5.0752,5.075,5.0751,5.0767,5.0766,5.0818,5.0826,5.0779,5.078,5.078,0,5.0571,5.0586,5.0603,5.0614,5.0623,5.0639,5.065,5.0655,5.0666,5.0683,5.0695,5.0713,5.0727,5.0756,5.0764,5.078,5.0779,5.0796,5.0782,5.0782,5.0781,5.0781,5.0783,5.0799,5.08,5.08,5.08,0,5.0604,5.0608,5.0624,5.0642,5.0656,5.067,5.0683,5.0692,5.0699,5.0712,5.0731,5.0743,5.0765,5.0783,5.0801,5.0808,5.0806,5.0805,5.081,5.0811,5.081,5.0812,5.0759,5.0804,5.0804,5.0803,5.0803,5.0803,5.0628,5.0642,5.0657,5.0676,5.0687,5.0701,5.0715,5.0723,5.074,5.0759,5.0761,5.0782,5.0796,5.0819,5.0827,5.0844,5.0839,5.0845,5.0847,5.0849,5.0852,5.0807,5.0847,5.0847,5.0846,5.0846,5.0846,0,5.0662,5.0673,5.069,5.071,5.0726,5.0723,5.0739,5.0752,5.0771,5.0784,5.08,5.0823,5.0841,5.0851,5.0869,5.0881,5.0881,5.0886,5.0885,5.0888,5.0854,5.0849,5.0886,5.0886,5.0886,5.0886,5.0886,5.0886,5.0682,5.0707,5.0713,5.0743,5.0753,5.0775,5.0785,5.0797,5.0808,5.0835,5.0851,5.0858,5.087,5.089,5.0907,5.0909,5.0917,5.0923,5.0925,5.0893,5.0889,5.0886,5.0881,5.0924,5.0924,5.0957,5.0957,5.0957]}]]